When you browse on this site, cookies collect data to enhance your experience and personalize the content and advertising you see.
Visit our Privacy Policy to learn more. By continuing to use the site, you agree to this use of cookies and data.
  • In Latvia
  • List of Countries
  • For 7 days
  • Water Temperature
  • Satellite Maps
  • Weather Map
  • Weather Widgets
  • user-avatar
    Login

    Hourly Weather Yelsk

    Today, 18 February, Monday

    Time Temperature Precipitation Wind Pressure Humidity
    00:00 +1°C° 0 mm 3 mps 750 mmHg 90%
    01:00 0°C° 0 mm 3 mps 750 mmHg 91%
    02:00 -1°C° 0 mm 2 mps 750 mmHg 93%
    03:00 -1°C° 0 mm 2 mps 751 mmHg 93%
    04:00 -1°C° 0 mm 2 mps 751 mmHg 93%
    05:00 -2°C° 0 mm 2 mps 751 mmHg 94%
    06:00 -2°C° 0 mm 2 mps 751 mmHg 92%
    07:00 -2°C° 0 mm 2 mps 752 mmHg 91%
    08:00 -2°C° 0 mm 2 mps 752 mmHg 88%
    09:00 -1°C° 0 mm 2 mps 752 mmHg 79%
    10:00 +1°C° 0 mm 2 mps 752 mmHg 70%
    11:00 +3°C° 0 mm 2 mps 753 mmHg 61%
    12:00 +3°C° 0 mm 2 mps 753 mmHg 56%
    13:00 +4°C° 0 mm 2 mps 753 mmHg 52%
    14:00 +5°C° 0 mm 2 mps 753 mmHg 43%
    15:00 +5°C° 0 mm 1 mps 753 mmHg 48%
    16:00 +4°C° 0 mm 1 mps 753 mmHg 54%
    17:00 +3°C° 0 mm 1 mps 753 mmHg 59%
    18:00 +2°C° 0 mm 1 mps 753 mmHg 63%
    19:00 +1°C° 0 mm 1 mps 753 mmHg 68%
    20:00 0°C° 0 mm 1 mps 753 mmHg 72%
    21:00 0°C° 0 mm 1 mps 753 mmHg 73%
    22:00 0°C° 0 mm 1 mps 753 mmHg 73%
    23:00 0°C° 0 mm 1 mps 753 mmHg 74%

    Tomorrow, 19 February, Tuesday

    Time Temperature Precipitation Wind Pressure Humidity
    00:00 0°C° 0 mm 1 mps 753 mmHg 73%
    01:00 -2°C° 0 mm 2 mps 753 mmHg 73%
    02:00 -2°C° 0 mm 2 mps 754 mmHg 73%
    03:00 -2°C° 0 mm 2 mps 753 mmHg 72%
    04:00 -2°C° 0 mm 2 mps 753 mmHg 72%
    05:00 -2°C° 0 mm 2 mps 753 mmHg 72%
    06:00 -2°C° 0 mm 2 mps 752 mmHg 73%
    07:00 -2°C° 0 mm 3 mps 752 mmHg 73%
    08:00 -2°C° 0 mm 3 mps 752 mmHg 74%
    09:00 0°C° 0 mm 3 mps 752 mmHg 70%
    10:00 +1°C° 0 mm 4 mps 751 mmHg 65%
    11:00 +3°C° 0 mm 4 mps 751 mmHg 61%
    12:00 +4°C° 0 mm 4 mps 750 mmHg 61%
    13:00 +5°C° 0 mm 5 mps 750 mmHg 60%
    14:00 +6°C° 0 mm 5 mps 749 mmHg 59%
    15:00 +5°C° 0 mm 4 mps 749 mmHg 65%
    16:00 +4°C° 0 mm 4 mps 748 mmHg 70%
    17:00 +3°C° 0 mm 4 mps 747 mmHg 76%
    18:00 +3°C° 0 mm 4 mps 747 mmHg 79%
    19:00 +1°C° 0 mm 4 mps 747 mmHg 83%
    20:00 +1°C° 0 mm 4 mps 746 mmHg 86%
    21:00 +1°C° 0 mm 4 mps 746 mmHg 87%
    22:00 +1°C° 0 mm 4 mps 745 mmHg 89%
    23:00 0°C° 0 mm 4 mps 745 mmHg 90%

    Day after tomorrow, 20 February, Wednesday

    Time Temperature Precipitation Wind Pressure Humidity
    00:00 0°C° 0 mm 4 mps 745 mmHg 90%
    01:00 0°C° 0 mm 4 mps 745 mmHg 91%
    02:00 0°C° 0 mm 4 mps 744 mmHg 91%
    03:00 0°C° 0 mm 4 mps 744 mmHg 91%
    04:00 -1°C° 0 mm 4 mps 743 mmHg 91%
    05:00 0°C° 0 mm 3 mps 743 mmHg 92%
    06:00 0°C° 0 mm 4 mps 743 mmHg 92%
    07:00 0°C° 0 mm 4 mps 743 mmHg 92%
    08:00 0°C° 0 mm 4 mps 743 mmHg 92%
    09:00 +1°C° 0 mm 4 mps 743 mmHg 86%
    10:00 +4°C° 0 mm 4 mps 744 mmHg 81%
    11:00 +5°C° 0 mm 5 mps 744 mmHg 76%
    12:00 +5°C° 0.1 mm 5 mps 744 mmHg 75%
    13:00 +4°C° 0.1 mm 6 mps 744 mmHg 73%
    14:00 +4°C° 0.1 mm 6 mps 744 mmHg 72%
    15:00 +4°C° 0.1 mm 6 mps 744 mmHg 71%
    16:00 +3°C° 0.1 mm 5 mps 744 mmHg 71%
    17:00 +3°C° 0.1 mm 5 mps 744 mmHg 70%
    18:00 +2°C° 0 mm 5 mps 744 mmHg 72%
    19:00 +3°C° 0 mm 4 mps 744 mmHg 74%
    20:00 +1°C° 0 mm 4 mps 744 mmHg 75%
    21:00 +1°C° 0 mm 5 mps 744 mmHg 75%
    22:00 +1°C° 0 mm 5 mps 744 mmHg 74%
    23:00 +1°C° 0 mm 6 mps 744 mmHg 74%

    21 February, Thursday

    Time Temperature Precipitation Wind Pressure Humidity
    00:00 +1°C° 0.1 mm 6 mps 744 mmHg 71%
    01:00 +1°C° 0.1 mm 6 mps 744 mmHg 69%
    02:00 0°C° 0.1 mm 7 mps 745 mmHg 66%
    03:00 -2°C° 0 mm 6 mps 745 mmHg 66%
    04:00 -3°C° 0 mm 6 mps 745 mmHg 67%
    05:00 -4°C° 0 mm 5 mps 745 mmHg 67%
    06:00 -4°C° 0 mm 5 mps 746 mmHg 65%
    07:00 -4°C° 0 mm 5 mps 746 mmHg 63%
    08:00 -4°C° 0 mm 5 mps 746 mmHg 62%
    09:00 -4°C° 0 mm 6 mps 746 mmHg 58%
    10:00 -3°C° 0 mm 6 mps 746 mmHg 55%
    11:00 -2°C° 0 mm 6 mps 747 mmHg 51%
    12:00 -2°C° 0 mm 6 mps 746 mmHg 49%
    13:00 0°C° 0 mm 5 mps 746 mmHg 46%
    14:00 0°C° 0 mm 5 mps 746 mmHg 43%
    15:00 0°C° 0 mm 4 mps 746 mmHg 46%
    16:00 0°C° 0 mm 4 mps 747 mmHg 48%
    17:00 0°C° 0 mm 3 mps 747 mmHg 51%
    18:00 0°C° 0 mm 3 mps 747 mmHg 54%
    19:00 -1°C° 0 mm 3 mps 747 mmHg 57%
    20:00 -2°C° 0 mm 3 mps 748 mmHg 61%
    21:00 -2°C° 0 mm 3 mps 748 mmHg 61%
    22:00 -2°C° 0 mm 3 mps 748 mmHg 62%
    23:00 -4°C° 0 mm 3 mps 749 mmHg 63%

    22 February, Friday

    Time Temperature Precipitation Wind Pressure Humidity
    00:00 -4°C° 0 mm 3 mps 749 mmHg 61%
    01:00 -4°C° 0 mm 3 mps 749 mmHg 60%
    02:00 -4°C° 0 mm 3 mps 750 mmHg 58%
    03:00 -5°C° 0 mm 4 mps 750 mmHg 58%
    04:00 -5°C° 0 mm 4 mps 751 mmHg 58%
    05:00 -6°C° 0 mm 5 mps 751 mmHg 58%
    06:00 -7°C° 0 mm 5 mps 752 mmHg 57%
    07:00 -9°C° 0 mm 6 mps 753 mmHg 56%
    08:00 -9°C° 0 mm 6 mps 754 mmHg 54%
    09:00 -9°C° 0 mm 6 mps 754 mmHg 52%
    10:00 -9°C° 0 mm 7 mps 755 mmHg 49%
    11:00 -9°C° 0 mm 7 mps 756 mmHg 46%
    12:00 -8°C° 0 mm 7 mps 756 mmHg 43%
    13:00 -8°C° 0 mm 7 mps 757 mmHg 39%
    14:00 -7°C° 0 mm 7 mps 757 mmHg 35%
    15:00 -6°C° 0 mm 6 mps 757 mmHg 37%
    16:00 -6°C° 0 mm 6 mps 758 mmHg 39%
    17:00 -6°C° 0 mm 6 mps 758 mmHg 41%
    18:00 -8°C° 0 mm 6 mps 759 mmHg 43%
    19:00 -7°C° 0 mm 5 mps 759 mmHg 45%
    20:00 -7°C° 0 mm 5 mps 760 mmHg 46%
    21:00 -7°C° 0 mm 5 mps 760 mmHg 48%
    22:00 -7°C° 0 mm 5 mps 761 mmHg 49%
    23:00 -7°C° 0 mm 5 mps 761 mmHg 50%

    23 February, Saturday

    Time Temperature Precipitation Wind Pressure Humidity
    00:00 -8°C° 0 mm 5 mps 761 mmHg 53%
    01:00 -8°C° 0 mm 4 mps 762 mmHg 55%
    02:00 -7°C° 0 mm 3 mps 762 mmHg 58%
    03:00 -8°C° 0 mm 3 mps 762 mmHg 60%
    04:00 -8°C° 0 mm 3 mps 762 mmHg 62%
    05:00 -8°C° 0 mm 3 mps 761 mmHg 64%
    06:00 -8°C° 0 mm 3 mps 762 mmHg 65%
    07:00 -8°C° 0 mm 3 mps 762 mmHg 65%
    08:00 -8°C° 0 mm 3 mps 762 mmHg 65%
    09:00 -7°C° 0 mm 3 mps 762 mmHg 60%
    10:00 -7°C° 0 mm 3 mps 762 mmHg 55%
    11:00 -6°C° 0 mm 3 mps 761 mmHg 50%
    12:00 -5°C° 0 mm 3 mps 761 mmHg 46%
    13:00 -5°C° 0 mm 3 mps 760 mmHg 43%
    14:00 -4°C° 0 mm 3 mps 760 mmHg 40%
    15:00 -4°C° 0 mm 3 mps 760 mmHg 39%
    16:00 -4°C° 0 mm 3 mps 759 mmHg 39%
    17:00 -4°C° 0 mm 3 mps 759 mmHg 38%
    18:00 -5°C° 0 mm 3 mps 759 mmHg 46%
    19:00 -4°C° 0 mm 2 mps 759 mmHg 53%
    20:00 -4°C° 0 mm 2 mps 759 mmHg 61%
    21:00 -5°C° 0 mm 2 mps 759 mmHg 66%
    22:00 -5°C° 0 mm 2 mps 759 mmHg 70%
    23:00 -3°C° 0 mm 1 mps 759 mmHg 75%
    Show more